Location: Carrières
(48.9495°N, 2.0407°E)
Time: 15:53:47
(UTC+00:00)

Vanguard 1 Rocket - Pass Details

Date: 18 April 2024
Orbit: 651 x 4220 km, 34.3° (Epoch: 19 May)

Event Time Altitude Azimuth Distance (km) Brightness Sun altitude
Rises 23:39:08 0° 262° (W) 4,468 10.9 -29.7°
Reaches altitude 10° 23:42:16 10° 249° (WSW) 3,893 10.4 -29.7°
Enters shadow 23:43:55 15° 240° (WSW) 3,694 10.2 -29.8°
